Regional Weather Roundup
Issued by NWS Goodland, KS

Home | Current Version | Previous Version | Text Only | Print | Product List | Glossary On
Versions: 1 2 3 4 5 6 7 8 9 10 11 12 13 14 15 16 17 18 19 20 21 22 23 24 25 26 27 28 29 30 31 32 33 34 35 36 37 38 39 40 41 42 43 44 45 46 47 48 49 50
000
ASUS43 KGLD 012259
RWRGLD

GOODLAND FORECAST AREA HOURLY WEATHER ROUNDUP
NATIONAL WEATHER SERVICE GOODLAND KS
500 PM MDT SAT OCT 01 2016

...OFFICIAL OBSERVATIONS...

CITY           SKY/WX    TMP DP  RH WIND       PRES   REMARKS
GOODLAND KS    SUNNY     75  50  41 SE13      30.02F
HILL CITY KS   SUNNY     75  51  43 E10       30.02F
IMPERIAL NEB   SUNNY     77  47  34 SE13      30.01S
MCCOOK NEB     SUNNY     76  50  40 SE14      30.01F
AKRON CO       SUNNY     79  42  26 SE9       30.02F
BURLINGTON CO  SUNNY     74  47  38 SE12      30.04F
LIMON CO       MOSUNNY   77  38  24 SE5       30.06F
$$

...UNOFFICIAL OBSERVATIONS...

CITY           SKY/WX    TMP DP  RH WIND       PRES   REMARKS
COLBY KS       SUNNY     79  54  41 SE12G21   30.02F
LENORA KS        N/A     72  32  23 MISG        N/A
NORTON KS      SUNNY     73  43  33 SE9       30.02F
SHARON SPRINGS   N/A     76  54  45 NE7         N/A
KIT CARSON CO    N/A     82  51  34 MISG        N/A
$$




USA.gov is the U.S. government's official web portal to all federal, state and local government web resources and services.